(490053) = 2008 TL75

Discovered at Kitt Peak on 2008-10-02 by Spacewatch.

Orbit

Orbit type: Main Belt

Note: WebGL enabled browser required.

epoch2022-01-21.0
epoch JD2459600.5
perihelion date2018-05-03.59589
perihelion JD2458242.09589
argument of perihelion (°)256.42673
ascending node (°)37.33950
inclination (°)18.69492
eccentricity0.0648236
perihelion distance (AU)2.9209280
Tisserand w.r.t. Jupiter3.1
ΔV w.r.t. Earth (km/sec)12.1
semimajor axis (AU)3.1233979
mean anomaly (°)242.54474
mean daily motion (°/day)0.17855120
aphelion distance (AU)3.326
period (years)5.52
P-vector [x]0.37189807
P-vector [y]-0.67832730
P-vector [z]-0.63369070
Q-vector [x]0.90768694
Q-vector [y]0.40870568
Q-vector [z]0.09520543
absolute magnitude16.43
phase slope0.15
uncertainty0
referenceMPO 700736
observations used130
oppositions10
arc length (days)8920
first opposition used1997
last opposition used2022
residual rms (arc-secs)0.90
perturbers coarse indicatorM-v
perturbers precise indicator003Ek
first observation date used1997-11-23.0
last observation date used2022-04-26.0
computer namePan
JD of orbit computation2457869.455347
perihelion JD uncertainty (days)1.4778E-03
argument of perihelion uncertainty (°)2.6199E-04
ascending node uncertainty (°)2.0643E-05
inclination uncertainty (°)3.2441E-05
eccentricity uncertainty 1.1644E-07
perihelion distance uncertainty (AU)3.8026E-07
Minimum Orbit Intersection Distances (in AU)
for orbit epoch: 2458200.5, reference: MPO411464
Mercury2.47301
Venus2.22718
Earth1.96633
Mars1.46962
Jupiter1.80687
Saturn5.96025
Uranus15.0707
Neptune26.676

Observations

134 total observations over interval: 1997 11 23.27880 – 2022 04 26.272817
These data are available for download (format description).

